Miscellaneous Local Product
Issued by NWS Hastings, NE

Home | Current Version | Previous Version | Graphics & Text | Print | Product List | Glossary On
Versions: 1 2 3 4 5 6 7 8 9 10 11 12 13 14 15 16 17 18 19 20 21 22 23 24 25 26 27 28 29 30 31 32 33 34 35 36 37 38 39 40 41 42 43 44 45 46 47 48 49 50
000
AXUS43 KGID 241702
MISGRI

GID CWA HOURLY WEATHER ROUNDUP
NATIONAL WEATHER SERVICE HASTINGS NE
1200 PM CDT FRI OCT 24 2014

NOTE: "FAIR" INDICATES FEW OR NO CLOUDS BELOW 12,000 FEET WITH NO
SIGNIFICANT WEATHER AND/OR OBSTRUCTIONS TO VISIBILITY.

...SOUTH CENTRAL NEBRASKA...

CITY           SKY/WX    TMP DP  RH WIND       PRES   REMARKS
GRAND ISLAND   CLOUDY    63  53  70 W7        29.97S
HASTINGS       CLOUDY    65  51  60 W9        29.98R
KEARNEY        CLOUDY    64  52  63 W9        30.00S
ORD            CLOUDY    58  52  80 NW5       29.96S
YORK           CLOUDY    64  57  77 W8        29.96S
AURORA         CLOUDY    63  56  76 W8        29.97R
LEXINGTON      CLOUDY    65  48  53 W10       30.01S
HOLDREGE       CLOUDY    65  50  59 CALM      30.00S
HEBRON         CLOUDY    65  59  81 SW12      29.98S

...NEBRASKA PANHANDLE...

CITY           SKY/WX    TMP DP  RH WIND       PRES   REMARKS
CHADRON        MOSUNNY   68  38  33 W13       30.04S
ALLIANCE       MOSUNNY   72  38  29 W16       30.07R
SCOTTSBLUFF    MOSUNNY   72  32  23 W14       30.09S
SIDNEY         CLOUDY    69  40  34 N8        30.12S

...WESTERN AND NORTH CENTRAL NEBRASKA...

CITY           SKY/WX    TMP DP  RH WIND       PRES   REMARKS
VALENTINE      PTSUNNY   64  37  36 W8        29.98R
AINSWORTH      CLOUDY    65  38  36 NW6       29.97S
ONEILL         CLOUDY    63  46  54 W5        29.96R
BROKEN BOW     CLOUDY    70  45  40 NW8       29.98S
IMPERIAL       PTSUNNY   72  38  29 NW8       30.07S
NORTH PLATTE   CLOUDY    64  43  46 W8        30.03S
MCCOOK         MOSUNNY   67  43  41 VRB5      30.05R

...EASTERN NEBRASKA...

CITY           SKY/WX    TMP DP  RH WIND       PRES   REMARKS
NORFOLK        CLOUDY    63  53  70 W5        29.93S
SO SIOUX CITY  CLOUDY    67  53  61 NW5       29.92S
TEKAMAH        PTSUNNY   68  57  68 W8        29.92F
COLUMBUS       CLOUDY    64  54  68 W8        29.96S
ALBION         CLOUDY    62  51  67 CALM      29.95S
OMAHA EPPLEY   CLOUDY    68  59  73 SW8       29.93F
OFFUTT AFB     PTSUNNY   69  68  98 SW8       29.93F
MILLARD        PTSUNNY   68  61  76 SW6       29.94S
LINCOLN        CLOUDY    68  59  73 W9        29.96S
NEBRASKA CITY  CLOUDY    66  63  91 S9        29.96F
BEATRICE       CLOUDY    65  61  87 SW10      29.97S
FALLS CITY     CLOUDY    68  62  81 SW13      29.97F

...NORTHERN KANSAS...

CITY           SKY/WX    TMP DP  RH WIND       PRES   REMARKS
GOODLAND       MOSUNNY   82  36  19 W7        30.10S
HILL CITY      SUNNY     77  54  44 W5        30.03S
NORTON         SUNNY     73  39  29 W9        30.02S
PHILLIPSBURG   SUNNY     63  63 100 W3        30.02R
SMITH CENTER   SUNNY     57  57 100 SW6       30.02S
BELOIT         SUNNY     68  61  77 S7        30.00S
HAYS           MOSUNNY   72  57  60 SW7       30.04F
RUSSELL        MOSUNNY   71  60  68 SW10      30.02S
CONCORDIA      CLOUDY    68  62  81 SW10      30.00S
SALINA         CLOUDY    68  62  81 S14       30.04S
TOPEKA         CLOUDY    69  62  78 S7        30.02F



USA.gov is the U.S. government's official web portal to all federal, state and local government web resources and services.